Location: Kawakawa
(35.3830°S, 174.0670°E)
Time: 13:45:33
(UTC+13:00)

Cosmos 1633 - Pass Details

Date: 24 January 2019
Orbit: 464 x 484 km, 82.5° (Epoch: 13 October)

Event Time Altitude Azimuth Distance (km) Brightness Sun altitude
Rises 22:59:28 0° 191° (SSW) 2,542 7.2 -24.0°
Reaches altitude 10° 23:01:35 10° 195° (SSW) 1,658 6.1 -24.3°
Enters shadow 23:04:32 49° 231° (SW) 622 3.4 -24.7°
